Phuket, Thailand

11:42 AM +07 on April 21, 2018 (GMT +0700)
Phuket International

Weather History for VTSP - June, 2013

Change the Weather History Date:

Sunday, June 23, 2013

  Actual Average Record
Temperature  
Mean Temperature 82 °F -  
Max Temperature 88 °F 88 °F 96 °F (2002)
Min Temperature 76 °F 78 °F 71 °F (2017)
Cooling Degree Days 17    
Growing Degree Days 32 (Base 50)    
Moisture  
Dew Point 75 °F    
Average Humidity 72    
Maximum Humidity 79    
Minimum Humidity 65    
Precipitation  
Precipitation 0.00 in 0.37 in - ()
Sea Level Pressure  
Sea Level Pressure 29.76 in    
Wind  
Wind Speed 10 mph ()    
Max Wind Speed 20 mph    
Max Gust Speed 29 mph    
Visibility 5.8 miles    
Events      
Averages and records for this station are not official NWS values.
T = Trace of Precipitation, MM = Missing Value Source: Averaged Metar Reports

Daily Weather History Graph

Daily Weather History Graph

Search for Another Location

Airport or City:

Astronomy

Jun. 23, 2013 Rise Set
Actual Time 6:11 AM +07 6:46 PM +07
Civil Twilight 5:48 AM +07 7:09 PM +07
Nautical Twilight 5:21 AM +07 7:36 PM +07
Astronomical Twilight 4:54 AM +07 8:03 PM +07
Moon 6:41 PM +07 (6/23) 5:43 AM +07 (6/23)
Length of Visible Light 13h 21m
Length of Day
12h 35m
Full, 100% of the Moon is Illuminated
Jun 23
Full
Jun 23
Full
Jun 30
Last Quarter
Jul 8
New
Jul 16
First Quarter

Hourly Weather History & Observations

Time (+07) Temp. Heat Index Dew Point Humidity Pressure Visibility Wind Dir Wind Speed Gust Speed Precip Events Conditions
12:00 AM 84.2 °F 92.3 °F 75.2 °F 74% 29.80 in 6.2 mi WSW 12.7 mph - N/A   Mostly Cloudy
12:30 AM 84.2 °F 92.3 °F 75.2 °F 74% 29.80 in 6.2 mi WSW 9.2 mph - N/A   Mostly Cloudy
1:00 AM 85 °F - 77 °F 71% 29.74 in 6 mi WSW 5.8 mph - -   Scattered Clouds
1:00 AM 84.2 °F 92.3 °F 75.2 °F 74% 29.77 in 6.2 mi WSW 11.5 mph - N/A   Mostly Cloudy
1:30 AM 84.2 °F 92.3 °F 75.2 °F 74% 29.77 in 6.2 mi WSW 11.5 mph - N/A   Mostly Cloudy
2:00 AM 84.2 °F 92.3 °F 75.2 °F 74% 29.74 in 6.2 mi WSW 9.2 mph - N/A   Mostly Cloudy
2:30 AM 84.2 °F 92.3 °F 75.2 °F 74% 29.74 in 6.2 mi West 11.5 mph - N/A   Mostly Cloudy
3:00 AM 84.2 °F 92.3 °F 75.2 °F 74% 29.74 in 6.2 mi WSW 11.5 mph - N/A   Mostly Cloudy
3:30 AM 84.2 °F 92.3 °F 75.2 °F 74% 29.74 in 6.2 mi West 9.2 mph - N/A   Mostly Cloudy
4:00 AM 84.2 °F 92.3 °F 75.2 °F 74% 29.71 in 6.2 mi WSW 11.5 mph - N/A   Mostly Cloudy
5:00 AM 84.2 °F 92.3 °F 75.2 °F 74% 29.71 in 6.2 mi WSW 8.1 mph - N/A   Mostly Cloudy
5:30 AM 82.4 °F 89.5 °F 75.2 °F 79% 29.74 in 6.2 mi WSW 11.5 mph - N/A   Mostly Cloudy
6:00 AM 82.4 °F 89.5 °F 75.2 °F 79% 29.74 in 6.2 mi WSW 6.9 mph - N/A   Mostly Cloudy
6:30 AM 82.4 °F 89.5 °F 75.2 °F 79% 29.74 in 6.2 mi WSW 5.8 mph - N/A   Mostly Cloudy
7:00 AM 84 °F - 76 °F 72% 29.71 in 6 mi WSW 8.1 mph - -   Scattered Clouds
7:00 AM 84.2 °F 92.3 °F 75.2 °F 74% 29.74 in 6.2 mi WSW 8.1 mph - N/A   Mostly Cloudy
7:30 AM 84.2 °F 92.3 °F 75.2 °F 74% 29.77 in 6.2 mi WSW 6.9 mph - N/A   Mostly Cloudy
8:00 AM 86.0 °F 95.1 °F 75.2 °F 70% 29.77 in 6.2 mi WSW 11.5 mph - N/A   Mostly Cloudy
8:30 AM 86.0 °F 95.1 °F 75.2 °F 70% 29.77 in 6.2 mi West 9.2 mph - N/A   Mostly Cloudy
9:00 AM 86.0 °F 95.1 °F 75.2 °F 70% 29.77 in 5.6 mi WSW 8.1 mph - N/A   Mostly Cloudy
9:30 AM 86.0 °F 95.1 °F 75.2 °F 70% 29.80 in 5.6 mi WSW 9.2 mph - N/A   Mostly Cloudy
10:00 AM 87.8 °F 99.7 °F 77.0 °F 70% 29.80 in 5.6 mi West 13.8 mph - N/A   Mostly Cloudy
10:30 AM 87.8 °F 97.6 °F 75.2 °F 66% 29.80 in 5.6 mi West 17.3 mph 28.8 mph N/A   Mostly Cloudy
11:00 AM 86.0 °F 93.4 °F 73.4 °F 66% 29.80 in 5.6 mi West 19.6 mph - N/A   Mostly Cloudy
11:30 AM 86.0 °F 93.4 °F 73.4 °F 66% 29.80 in 5.6 mi West 17.3 mph - N/A   Mostly Cloudy
12:00 PM 86.0 °F 95.1 °F 75.2 °F 70% 29.77 in 5.6 mi West 15.0 mph - N/A   Mostly Cloudy
12:30 PM 86.0 °F 95.1 °F 75.2 °F 70% 29.77 in 5.6 mi West 12.7 mph - N/A   Mostly Cloudy
1:00 PM 88 °F - 78 °F 65% 29.75 in 6 mi West 11.5 mph - -   Mist
1:00 PM 86.0 °F 95.1 °F 75.2 °F 70% 29.77 in 5.6 mi West 13.8 mph - N/A   Mostly Cloudy
1:30 PM 86.0 °F 95.1 °F 75.2 °F 70% 29.77 in 5.6 mi West 15.0 mph - N/A   Mostly Cloudy
2:00 PM 87.8 °F 97.6 °F 75.2 °F 66% 29.77 in 5.6 mi West 15.0 mph - N/A   Mostly Cloudy
2:30 PM 86.0 °F 95.1 °F 75.2 °F 70% 29.74 in 5.6 mi West 13.8 mph - N/A   Mostly Cloudy
3:00 PM 87.8 °F 97.6 °F 75.2 °F 66% 29.74 in 5.6 mi West 12.7 mph - N/A   Mostly Cloudy
3:30 PM 87.8 °F 97.6 °F 75.2 °F 66% 29.74 in 5.6 mi West 10.4 mph - N/A   Mostly Cloudy
4:00 PM 86.0 °F 95.1 °F 75.2 °F 70% 29.74 in 5.6 mi West 10.4 mph - N/A   Mostly Cloudy
4:30 PM 86.0 °F 95.1 °F 75.2 °F 70% 29.71 in 5.6 mi West 12.7 mph - N/A   Mostly Cloudy
5:00 PM 86.0 °F 95.1 °F 75.2 °F 70% 29.71 in 5.6 mi West 15.0 mph - N/A   Mostly Cloudy
5:30 PM 86.0 °F 95.1 °F 75.2 °F 70% 29.74 in 5.6 mi West 13.8 mph - N/A   Mostly Cloudy
6:00 PM 86.0 °F 95.1 °F 75.2 °F 70% 29.71 in 5.6 mi WSW 12.7 mph - N/A   Mostly Cloudy
6:30 PM 84.2 °F 92.3 °F 75.2 °F 74% 29.74 in 5.6 mi WSW 9.2 mph - N/A   Mostly Cloudy
7:00 PM 86 °F - 76 °F 67% 29.70 in 6 mi WNW 8.1 mph - -   Mist
7:00 PM 84.2 °F 92.3 °F 75.2 °F 74% 29.74 in 5.6 mi WSW 6.9 mph - N/A   Mostly Cloudy
7:30 PM 84.2 °F 92.3 °F 75.2 °F 74% 29.77 in 5.6 mi WSW 4.6 mph - N/A   Mostly Cloudy
8:00 PM 84.2 °F 92.3 °F 75.2 °F 74% 29.77 in 5.6 mi WSW 8.1 mph - N/A   Mostly Cloudy
8:30 PM 84.2 °F 92.3 °F 75.2 °F 74% 29.80 in 5.6 mi WSW 9.2 mph - N/A   Mostly Cloudy
9:00 PM 84.2 °F 92.3 °F 75.2 °F 74% 29.80 in 5.6 mi West 10.4 mph - N/A   Mostly Cloudy
9:30 PM 84.2 °F 92.3 °F 75.2 °F 74% 29.80 in 5.6 mi WSW 4.6 mph - N/A   Mostly Cloudy
10:00 PM 84.2 °F 92.3 °F 75.2 °F 74% 29.83 in 5.6 mi WSW 5.8 mph - N/A   Mostly Cloudy
10:30 PM 82.4 °F 89.5 °F 75.2 °F 79% 29.83 in 5.6 mi SW 3.5 mph - N/A   Mostly Cloudy
11:00 PM 84.2 °F 92.3 °F 75.2 °F 74% 29.80 in 5.6 mi West 5.8 mph - N/A   Mostly Cloudy
11:30 PM 82.4 °F 89.5 °F 75.2 °F 79% 29.83 in 5.6 mi SW 3.5 mph - N/A   Mostly Cloudy